This demonstration page uses our WeatherBlox Daily Observations layout. Learn more.

Left ArrowRight Arrow

Hourly Observations for October 11, 2021

Temp ( °F °C ) Dew Point ( °F °C ) Humidity (%) Winds ( mph kmh ) Pressure ( in mb ) Visibility ( mi km ) Precip ( " mm )
12:53 am 00:53 Clear 48 8.9 39 3.9 71 71 ENE 3 6 29.72 1007 9 14 N/A
1:53 am 01:53 Clear 46 7.8 39 3.9 77 77 NW 6 9 29.74 1007 10 16 N/A
2:53 am 02:53 Clear 45 7.2 39 3.9 80 80 N N/A 29.74 1007 10 16 N/A
3:53 am 03:53 Clear 44 6.7 39 3.9 83 83 WNW 9 15 29.74 1007 10 16 N/A
4:53 am 04:53 Clear 45 7.2 39 3.9 80 80 N N/A 29.73 1007 10 16 N/A
5:53 am 05:53 Clear 45 7.2 39 3.9 80 80 N N/A 29.75 1007 10 16 N/A
6:53 am 06:53 Clear 45 7.2 40 4.4 83 83 NW 9 15 29.75 1007 10 16 N/A
7:53 am 07:53 Sunny 46 7.8 40 4.4 79 79 NW 8 13 29.77 1008 9 14 N/A
8:53 am 08:53 Sunny 50 10 42 5.6 74 74 NNW 6 9 29.78 1009 9 14 N/A
9:53 am 09:53 Sunny 58 14.4 44 6.7 60 60 NNW 8 13 29.78 1008 9 14 N/A
10:53 am 10:53 Sunny 64 17.8 44 6.7 48 48 NNW 12 19 29.78 1008 10 16 N/A
11:53 am 11:53 Sunny 68 20 40 4.4 36 36 NNW 13 20 29.77 1008 10 16 N/A
12:53 pm 12:53 Sunny 71 21.7 37 2.8 29 29 N 13 20 29.76 1008 10 16 N/A
1:53 pm 13:53 Sunny 72 22.2 36 2.2 27 27 NNW 10 17 29.75 1008 10 16 N/A
2:53 pm 14:53 Sunny 73 22.8 36 2.2 26 26 NW 6 9 29.75 1007 10 16 N/A
3:53 pm 15:53 Sunny 74 23.3 37 2.8 26 26 NNW 9 15 29.75 1008 10 16 N/A
4:53 pm 16:53 Sunny 72 22.2 36 2.2 27 27 WNW 9 15 29.76 1008 10 16 N/A
5:53 pm 17:53 Sunny 73 22.8 37 2.8 27 27 WNW 5 7 29.76 1008 10 16 N/A
6:53 pm 18:53 Sunny 67 19.4 39 3.9 36 36 N N/A 29.79 1009 10 16 N/A
7:53 pm 19:53 Clear 60 15.6 41 5 50 50 N N/A 29.81 1010 7 11 N/A
8:53 pm 20:53 Hazy 55 12.8 40 4.4 57 57 NNE 3 6 29.83 1010 5 8 N/A
9:53 pm 21:53 Clear 55 12.8 38 3.3 53 53 undefined N/A 29.84 1011 10 16 N/A
10:53 pm 22:53 Clear 53 11.7 38 3.3 57 57 N N/A 29.85 1011 10 16 N/A
11:53 pm 23:53 Clear 53 11.7 37 2.8 55 55 S 3 6 29.87 1011 10 16 N/A

Powered by AerisWeather